TimeEST,TemperatureF,Dew PointF,Humidity,Sea Level PressureIn,VisibilityMPH,Wind Direction,Wind SpeedMPH,Gust SpeedMPH,PrecipitationIn,Events,Conditions,WindDirDegrees,DateUTC
12:53 AM,19.0,1.0,46,30.42,10.0,West,6.9,-,N/A,,Mostly Cloudy,280,2013-01-23 05:53:00
1:53 AM,17.1,1.9,52,30.41,10.0,West,3.5,-,N/A,,Clear,280,2013-01-23 06:53:00
2:53 AM,17.1,1.9,52,30.41,10.0,Calm,Calm,-,N/A,,Clear,0,2013-01-23 07:53:00
3:53 AM,16.0,1.9,54,30.41,10.0,Calm,Calm,-,N/A,,Clear,0,2013-01-23 08:53:00
4:53 AM,16.0,3.9,59,30.40,10.0,Calm,Calm,-,N/A,,Overcast,0,2013-01-23 09:53:00
5:53 AM,17.1,3.0,54,30.40,10.0,Calm,Calm,-,N/A,,Overcast,0,2013-01-23 10:53:00
6:53 AM,18.0,3.0,52,30.40,10.0,Calm,Calm,-,N/A,,Overcast,0,2013-01-23 11:53:00
7:53 AM,19.0,3.0,50,30.40,10.0,Calm,Calm,-,N/A,,Overcast,0,2013-01-23 12:53:00
8:53 AM,19.0,3.9,52,30.41,10.0,Calm,Calm,-,N/A,,Overcast,0,2013-01-23 13:53:00
9:53 AM,19.9,6.1,55,30.40,10.0,South,5.8,-,N/A,,Overcast,190,2013-01-23 14:53:00
10:53 AM,23.0,6.1,48,30.39,10.0,South,5.8,-,N/A,,Clear,190,2013-01-23 15:53:00
11:53 AM,26.1,6.1,43,30.36,10.0,South,5.8,-,N/A,,Clear,170,2013-01-23 16:53:00
12:53 PM,28.9,8.1,41,30.31,10.0,Calm,Calm,-,N/A,,Mostly Cloudy,0,2013-01-23 17:53:00
1:53 PM,30.9,8.1,38,30.25,10.0,SW,5.8,-,N/A,,Clear,220,2013-01-23 18:53:00
2:53 PM,34.0,10.0,37,30.21,10.0,SW,11.5,16.1,N/A,,Partly Cloudy,220,2013-01-23 19:53:00
3:53 PM,35.1,12.9,40,30.19,10.0,SSW,8.1,-,N/A,,Clear,200,2013-01-23 20:53:00
4:53 PM,37.0,14.0,39,30.17,10.0,WSW,10.4,-,N/A,,Clear,250,2013-01-23 21:53:00
5:53 PM,36.0,14.0,41,30.15,10.0,WSW,6.9,-,N/A,,Clear,240,2013-01-23 22:53:00
6:53 PM,34.0,14.0,44,30.14,10.0,WSW,4.6,-,N/A,,Clear,240,2013-01-23 23:53:00
7:53 PM,33.1,15.1,48,30.13,10.0,WSW,4.6,-,N/A,,Clear,240,2013-01-24 00:53:00
8:53 PM,32.0,16.0,52,30.15,10.0,WNW,5.8,-,N/A,,Clear,300,2013-01-24 01:53:00
9:53 PM,30.0,17.1,59,30.16,10.0,WNW,8.1,-,N/A,,Clear,290,2013-01-24 02:53:00
10:53 PM,30.9,17.1,57,30.17,10.0,WNW,10.4,-,N/A,,Clear,290,2013-01-24 03:53:00
11:53 PM,32.0,17.6,55,30.16,10.0,WNW,11.5,-,N/A,,Clear,290,2013-01-24 04:53:00